DW5247 Lemo FI current weather conditions

sailwx.info

Wind from 068 at 4 knots gusting 8

Air temperature -0.6° C
Dewpoint -2.8° C

Last reported at 2014-Oct-25 06:52 UTC.
Time now 2014-Oct-25 07:46 UTC

Location: N 62°41' E 029°49'.
View on Google Maps.

See reports from other nearby stations

  
Tides and Currents Weather Stations Pressure Air Temp Water Temp Dewpoint Dewpoint Depression Visibility Wind Speed Wind Dir Waves Ship Positions
date/time (UTC)wind fromknots sea level pressurealtimeterstation pressurevisibilityair tempwater tempwave heightnotes
2014-Oct-25 06:52 068 4 gusting 8 -0.6
2014-Oct-25 06:47 023 4 gusting 6 -0.0
2014-Oct-25 06:42 135 3 gusting 7 -0.0
2014-Oct-25 06:37 338 3 gusting 7 -0.0
2014-Oct-25 06:32 068 4 gusting 7 -0.0
2014-Oct-25 06:27 203 3 gusting 6 -0.0
2014-Oct-25 06:22 068 3 gusting 5 -0.0
2014-Oct-25 06:17 045 4 gusting 5 -0.0
2014-Oct-25 06:12 045 3 gusting 5 -0.0
2014-Oct-25 06:07 068 3 gusting 5 -0.0
2014-Oct-25 06:02 068 3 gusting 7 -0.0
2014-Oct-25 05:57 090 4 gusting 7 -0.0
2014-Oct-25 05:52 023 4 gusting 7 -0.0
2014-Oct-25 05:47 068 4 gusting 7 -0.0
2014-Oct-25 05:42 068 5 gusting 7 -0.0
2014-Oct-25 05:37 068 5 gusting 7 -0.0
2014-Oct-25 05:32 068 4 gusting 6 -0.0
2014-Oct-25 05:27 068 4 gusting 6 -0.0
2014-Oct-25 05:22 068 4 gusting 6 -0.0
2014-Oct-25 05:17 068 4 gusting 7 -0.0
2014-Oct-25 05:12 090 4 gusting 7 -0.0
2014-Oct-25 05:07 068 3 gusting 7 -0.0
2014-Oct-25 05:02 045 4 gusting 7 -0.0
2014-Oct-25 04:57 068 4 gusting 7 -0.0
2014-Oct-25 04:52 068 3 gusting 6 -0.0
2014-Oct-25 04:47 068 3 gusting 6 -0.0
2014-Oct-25 04:42 068 4 gusting 6 -0.0
2014-Oct-25 04:37 113 3 gusting 6 -0.0
2014-Oct-25 04:32 023 3 gusting 6 -0.0
2014-Oct-25 04:27 045 3 gusting 6 -0.0
2014-Oct-25 04:22 068 4 gusting 7 -0.0
2014-Oct-25 04:17 203 4 gusting 7 -0.0
2014-Oct-25 04:12 068 3 gusting 7 -0.0
2014-Oct-25 04:07 045 3 gusting 5 -0.0
2014-Oct-25 04:02 068 3 gusting 5 -0.0
2014-Oct-25 03:57 068 4 gusting 5 -0.0
2014-Oct-25 03:52 068 3 gusting 5 -0.0
2014-Oct-25 03:47 068 3 gusting 4 -0.0
2014-Oct-25 03:42 090 2 gusting 4 -0.0
2014-Oct-25 03:37 068 3 gusting 4 -0.0
2014-Oct-25 03:32 068 3 gusting 6 0.6
2014-Oct-25 03:27 068 3 gusting 6 0.6
2014-Oct-25 03:22 090 3 gusting 4 0.6
2014-Oct-25 03:17 045 3 gusting 3 0.6
2014-Oct-25 03:12 090 4 gusting 5 0.6
2014-Oct-25 03:07 090 4 gusting 10 0.6
2014-Oct-25 03:02 090 4 gusting 10 0.6
2014-Oct-25 02:57 068 4 gusting 6 0.6
2014-Oct-25 02:52 0.6
2014-Oct-25 02:47 023 3 gusting 5 0.6
2014-Oct-25 02:42 068 3 gusting 5 0.6
2014-Oct-25 02:37 045 3 gusting 6 -0.0
2014-Oct-25 02:32 090 3 gusting 6 -0.0
2014-Oct-25 02:27 023 4 gusting 5 -0.0
2014-Oct-25 02:22 023 3 gusting 5 -0.0
2014-Oct-25 02:17 113 3 gusting 5 -0.0
2014-Oct-25 02:12 068 3 gusting 5 -0.0
2014-Oct-25 02:07 090 3 gusting 5 -0.0
2014-Oct-25 02:02 090 4 gusting 5 -0.0
2014-Oct-25 01:57 068 4 gusting 7 -0.0
2014-Oct-25 01:52 068 3 gusting 7 -0.0
2014-Oct-25 01:47 045 3 gusting 7 -0.0
2014-Oct-25 01:42 045 3 gusting 5 -0.0
2014-Oct-25 01:37 068 3 gusting 6 -0.0
2014-Oct-25 01:32 045 3 gusting 6 -0.0
2014-Oct-25 01:27 068 3 gusting 6 -0.0
2014-Oct-25 01:22 068 4 gusting 7 -0.0
2014-Oct-25 01:17 068 4 gusting 7 -0.0
2014-Oct-25 01:12 045 3 gusting 8 -0.0
2014-Oct-25 01:07 068 3 gusting 8 -0.0
2014-Oct-25 01:02 045 4 gusting 8 -0.0
2014-Oct-25 00:57 248 4 gusting 6 -0.0
2014-Oct-25 00:52 -0.0
2014-Oct-25 00:47 068 3 gusting 6 -0.0
2014-Oct-25 00:42 023 3 gusting 6 -0.0
2014-Oct-25 00:37 045 3 gusting 6 -0.0
2014-Oct-25 00:32 045 3 gusting 5 -0.0
2014-Oct-25 00:27 045 3 gusting 5 -0.0
2014-Oct-25 00:22 045 3 gusting 5 -0.0
2014-Oct-25 00:17 068 3 gusting 5 0.6
2014-Oct-25 00:12 113 3 gusting 5 0.6
2014-Oct-25 00:07 113 3 gusting 7 0.6
2014-Oct-25 00:02 113 3 gusting 7 0.6
2014-Oct-24 23:57 045 4 gusting 7 -0.0
2014-Oct-24 23:52 068 3 gusting 7 -0.0
2014-Oct-24 23:47 0.6
2014-Oct-24 23:42 068 3 gusting 6 0.6
2014-Oct-24 23:37 023 3 gusting 9 0.6
2014-Oct-24 23:32 023 4 gusting 9 0.6
2014-Oct-24 23:27 113 4 gusting 9 0.6
2014-Oct-24 23:22 068 4 gusting 5 -0.0
2014-Oct-24 23:17 068 3 gusting 5 -0.0
2014-Oct-24 23:12 068 3 gusting 5 -0.0
2014-Oct-24 23:07 045 3 gusting 5 -0.0
2014-Oct-24 23:02 090 2 gusting 5 -0.0
2014-Oct-24 22:57 023 3 gusting 6 -0.0
2014-Oct-24 22:52 023 3 gusting 6 -0.0
2014-Oct-24 22:47 068 4 gusting 6 -0.0
2014-Oct-24 22:42 045 3 gusting 6 -0.0
2014-Oct-24 22:37 068 3 gusting 6 -0.0
2014-Oct-24 22:32 045 3 gusting 5 -0.0
2014-Oct-24 22:27 045 3 gusting 6 -0.0
2014-Oct-24 22:22 068 3 gusting 6 -0.0
2014-Oct-24 22:17 113 3 gusting 6 -0.0
2014-Oct-24 22:12 045 3 gusting 5 -0.0
2014-Oct-24 22:07 068 3 gusting 5 -0.0
2014-Oct-24 22:02 023 3 gusting 5 -0.0
2014-Oct-24 21:57 158 3 gusting 5 -0.0
2014-Oct-24 21:52 045 4 gusting 8 -0.0
2014-Oct-24 21:47 068 4 gusting 8 -0.0
2014-Oct-24 21:42 045 4 gusting 8 -0.0
2014-Oct-24 21:37 068 3 gusting 4 -0.0
2014-Oct-24 21:32 113 3 gusting 5 -0.0
2014-Oct-24 21:27 068 3 gusting 5 -0.0
2014-Oct-24 21:22 090 3 gusting 5 -0.0
2014-Oct-24 21:17 068 3 gusting 5 -0.0
2014-Oct-24 21:12 068 3 gusting 5 -0.0
2014-Oct-24 21:07 023 3 gusting 5 -0.0
2014-Oct-24 20:57 293 3 gusting 7 -0.0
2014-Oct-24 20:52 068 3 gusting 7 -0.0
2014-Oct-24 20:47 113 3 gusting 6 -0.0
2014-Oct-24 20:42 068 3 gusting 6 -0.0
2014-Oct-24 20:37 045 4 gusting 7 -0.0
2014-Oct-24 20:32 068 3 gusting 7 -0.0
2014-Oct-24 20:27 068 3 gusting 7 -0.0
2014-Oct-24 20:22 023 3 gusting 6 -0.0
2014-Oct-24 20:17 045 4 gusting 6 -0.0
2014-Oct-24 20:12 068 4 gusting 6 -0.0
2014-Oct-24 20:07 045 4 gusting 7 -0.0
2014-Oct-24 20:02 068 4 gusting 7 -0.0
2014-Oct-24 19:57 045 5 gusting 7 -0.0
2014-Oct-24 19:52 068 5 gusting 6 -0.0
2014-Oct-24 19:47 090 5 gusting 6 -0.0
2014-Oct-24 19:42 068 4 gusting 6 -0.0
2014-Oct-24 19:37 068 4 gusting 6 -0.0
2014-Oct-24 19:32 068 4 gusting 6 -0.0
2014-Oct-24 19:27 045 4 gusting 6 -0.0
2014-Oct-24 19:22 068 4 gusting 6 -0.0
2014-Oct-24 19:17 045 4 gusting 9 -0.0
2014-Oct-24 19:12 045 4 gusting 9 -0.0
2014-Oct-24 19:07 248 4 gusting 9 -0.0
2014-Oct-24 19:02 068 4 gusting 6 -0.0
2014-Oct-24 18:57 045 4 gusting 8 -0.0
2014-Oct-24 18:52 090 5 gusting 8 -0.0
2014-Oct-24 18:47 068 5 gusting 8 -0.0
2014-Oct-24 18:42 090 4 gusting 6 -0.0
2014-Oct-24 18:37 068 3 gusting 6 -0.0
2014-Oct-24 18:32 068 3 gusting 6 -0.6
2014-Oct-24 18:27 135 4 gusting 6 -0.6
2014-Oct-24 18:22 045 4 gusting 6 -0.6
2014-Oct-24 18:17 113 4 gusting 6 -0.6
2014-Oct-24 18:12 068 3 gusting 6 -0.6
2014-Oct-24 18:07 068 3 gusting 8 -0.6
2014-Oct-24 18:02 113 4 gusting 8 -0.6
2014-Oct-24 17:57 090 4 gusting 8 -0.6
2014-Oct-24 17:52 090 3 gusting 6 -0.6
2014-Oct-24 17:47 338 3 gusting 6 -0.6
2014-Oct-24 17:42 338 4 gusting 7 -0.6
2014-Oct-24 17:37 338 4 gusting 7 -0.6
2014-Oct-24 17:32 338 5 gusting 6 -0.6
2014-Oct-24 17:27 338 4 gusting 6 -0.6
2014-Oct-24 17:22 338 4 gusting 6 -0.6
2014-Oct-24 17:17 338 3 gusting 7 -0.6
2014-Oct-24 17:12 338 4 gusting 7 -0.6
2014-Oct-24 17:07 338 4 gusting 7 -0.6
2014-Oct-24 17:02 338 4 gusting 7 -0.6
2014-Oct-24 16:57 338 4 gusting 6 -0.6
2014-Oct-24 16:52 338 4 gusting 6 -0.6
2014-Oct-24 16:47 338 4 gusting 6 -0.6
2014-Oct-24 16:42 338 4 gusting 6 -0.6
2014-Oct-24 16:37 338 4 gusting 6 -0.6
2014-Oct-24 16:32 338 3 gusting 7 -0.6
2014-Oct-24 16:27 338 4 gusting 7 -0.6
2014-Oct-24 16:22 338 3 gusting 6 -0.6
2014-Oct-24 16:17 338 3 gusting 6 -0.6
2014-Oct-24 16:12 338 3 gusting 6 -0.6
2014-Oct-24 16:07 338 4 gusting 6 -0.6
2014-Oct-24 16:02 338 4 gusting 6 -0.6
2014-Oct-24 15:57 338 3 gusting 6 -0.6
2014-Oct-24 15:52 338 3 gusting 6 -0.6
2014-Oct-24 15:47 338 3 gusting 6 -0.6
2014-Oct-24 15:42 338 3 gusting 5 -0.6
2014-Oct-24 15:37 338 3 gusting 6 -0.6
2014-Oct-24 15:32 338 3 gusting 6 -0.6
2014-Oct-24 15:27 338 3 gusting 6 -0.6
2014-Oct-24 15:22 338 3 gusting 5 -0.6
2014-Oct-24 15:17 338 3 gusting 5 -0.6
2014-Oct-24 15:12 338 3 gusting 5 -0.6
2014-Oct-24 15:07 338 3 gusting 6 -0.6
2014-Oct-24 15:02 338 3 gusting 6 -0.6
2014-Oct-24 14:57 338 3 gusting 6 -0.6
2014-Oct-24 14:52 338 3 gusting 6 -0.6
2014-Oct-24 14:47 338 3 gusting 5 -0.6
2014-Oct-24 14:17 338 3 gusting 5 -0.6
2014-Oct-24 14:12 338 3 gusting 6 -0.6
2014-Oct-24 14:07 338 3 gusting 6 -0.6
2014-Oct-24 14:02 338 3 gusting 6 -0.6
2014-Oct-24 13:57 338 3 gusting 4 -0.6
2014-Oct-24 13:52 338 3 gusting 4 -0.6
2014-Oct-24 13:47 338 3 gusting 4 -0.6
2014-Oct-24 13:42 338 3 gusting 6 -0.6
2014-Oct-24 13:37 338 3 gusting 6 -0.6
2014-Oct-24 13:32 338 3 gusting 6 -0.6
2014-Oct-24 13:27 338 3 gusting 4 -0.6
2014-Oct-24 13:22 338 3 gusting 4 -0.6
2014-Oct-24 13:17 338 3 gusting 4 -0.6
2014-Oct-24 13:12 338 3 gusting 4 -0.6
2014-Oct-24 13:07 338 3 gusting 6 -0.6
2014-Oct-24 13:02 338 3 gusting 6 -0.6
2014-Oct-24 12:57 338 3 gusting 6 -0.6
2014-Oct-24 12:52 338 3 gusting 6 -0.6
2014-Oct-24 12:47 338 3 gusting 6 -0.6
2014-Oct-24 12:42 338 3 gusting 7 -0.6
2014-Oct-24 12:37 338 3 gusting 7 -0.6
2014-Oct-24 12:32 338 3 gusting 7 -0.6
2014-Oct-24 12:27 338 3 gusting 6 -0.6
2014-Oct-24 12:22 338 3 gusting 6 -0.6
2014-Oct-24 12:17 338 3 gusting 6 -0.6
2014-Oct-24 12:12 338 3 gusting 4 -0.6
2014-Oct-24 12:07 338 3 gusting 4 -0.6
2014-Oct-24 12:02 338 3 gusting 6 -0.6
2014-Oct-24 11:57 338 3 gusting 6 -0.6
2014-Oct-24 11:52 338 3 gusting 6 -0.6
2014-Oct-24 11:47 338 3 gusting 5 -0.6
2014-Oct-24 11:42 338 2 gusting 6 -0.6
2014-Oct-24 11:37 338 3 gusting 6 -0.6
2014-Oct-24 11:32 338 3 gusting 6 -0.6
2014-Oct-24 11:27 338 3 gusting 5 -1.1
2014-Oct-24 11:22 338 3 gusting 5 -1.1
2014-Oct-24 11:17 338 3 gusting 6 -1.1
2014-Oct-24 11:12 338 3 gusting 6 -1.1
2014-Oct-24 11:07 338 3 gusting 6 -1.1
2014-Oct-24 11:02 338 4 gusting 6 -1.1
2014-Oct-24 10:57 338 3 gusting 6 -1.1
2014-Oct-24 10:52 338 3 gusting 6 -1.1
2014-Oct-24 10:47 338 3 gusting 6 -1.1
2014-Oct-24 10:42 338 3 gusting 6 -1.1
2014-Oct-24 10:37 338 3 gusting 6 -1.1
2014-Oct-24 10:32 338 4 gusting 4 -1.7
2014-Oct-24 10:27 338 3 gusting 6 -1.1
2014-Oct-24 10:22 338 3 gusting 6 -1.7
2014-Oct-24 10:17 338 3 gusting 6 -1.7
2014-Oct-24 10:12 338 3 gusting 6 -1.7
2014-Oct-24 10:07 338 3 gusting 6 -1.7
2014-Oct-24 10:02 338 3 gusting 6 -1.7
2014-Oct-24 09:57 338 3 gusting 6 -1.7
2014-Oct-24 09:52 338 3 gusting 5 -2.2
2014-Oct-24 09:47 338 3 gusting 5 -2.2
2014-Oct-24 09:42 338 3 gusting 5 -2.2
2014-Oct-24 09:37 338 3 gusting 5 -2.2
2014-Oct-24 09:32 338 3 gusting 5 -2.2
2014-Oct-24 09:27 338 3 gusting 5 -2.2
2014-Oct-24 09:22 338 3 gusting 5 -2.2
2014-Oct-24 09:17 338 3 gusting 4 -2.2
2014-Oct-24 09:12 338 3 gusting 4 -2.8
2014-Oct-24 09:07 338 2 gusting 4 -2.8
2014-Oct-24 09:02 338 2 gusting 4 -2.8
2014-Oct-24 08:57 338 2 gusting 4 -2.8
2014-Oct-24 08:52 338 2 gusting 4 -3.3
2014-Oct-24 08:47 338 2 gusting 3 -3.3
2014-Oct-24 08:42 338 2 gusting 3 -3.3
2014-Oct-24 08:37 338 1 gusting 3 -3.3
2014-Oct-24 08:32 338 1 gusting 3 -3.3
2014-Oct-24 08:27 338 2 gusting 3 -3.9
2014-Oct-24 08:22 338 2 gusting 3 -3.9
2014-Oct-24 08:17 338 1 gusting 3 -3.9
2014-Oct-24 08:12 338 1 gusting 3 -3.9
2014-Oct-24 08:07 338 1 gusting 3 -3.9
2014-Oct-24 08:02 338 1 gusting 3 -3.9
2014-Oct-24 07:57 338 1 gusting 4 -3.9
2014-Oct-24 07:52 338 2 gusting 4 -3.9
2014-Oct-24 07:47 338 2 gusting 4 -4.4
2014-Oct-24 07:42 338 3 gusting 4 -4.4
2014-Oct-24 07:37 338 3 gusting 4 -4.4
2014-Oct-24 07:32 338 3 gusting 4 -4.4
2014-Oct-24 07:27 338 2 gusting 3 -4.4
2014-Oct-24 07:22 338 2 gusting 3 -4.4
2014-Oct-24 07:17 338 2 gusting 3 -4.4
2014-Oct-24 07:12 338 2 gusting 3 -4.4
2014-Oct-24 07:07 338 1 gusting 3 -5.0
2014-Oct-24 07:02 338 1 gusting 3 -5.0
2014-Oct-24 06:57 338 1 gusting 3 -5.0
2014-Oct-24 06:52 338 1 gusting 3 -5.0
2014-Oct-24 06:47 338 2 gusting 3 -5.0
2014-Oct-24 06:42 338 1 gusting 3 -5.0
2014-Oct-24 06:37 338 1 gusting 3 -5.0
2014-Oct-24 06:32 338 1 gusting 4 -5.0
2014-Oct-24 06:27 338 1 gusting 4 -5.0
2014-Oct-24 06:22 338 1 gusting 4 -5.0
2014-Oct-24 06:17 338 1 gusting 3 -5.6
2014-Oct-24 06:12 338 1 gusting 3 -5.6
2014-Oct-24 06:07 338 1 gusting 3 -5.6
2014-Oct-24 06:02 338 1 gusting 2 -5.6
2014-Oct-24 05:57 338 1 gusting 2 -5.6
2014-Oct-24 05:52 338 1 gusting 3 -5.6
2014-Oct-24 05:47 338 1 gusting 3 -5.6
2014-Oct-24 05:42 338 1 gusting 3 -5.6
2014-Oct-24 05:37 338 1 gusting 3 -5.6
2014-Oct-24 05:32 338 1 gusting 2 -5.6
2014-Oct-24 05:27 338 1 gusting 3 -5.6
2014-Oct-24 05:22 338 2 gusting 3 -5.6
2014-Oct-24 05:17 338 1 gusting 4 -5.6
2014-Oct-24 05:12 338 1 gusting 4 -5.6
2014-Oct-24 05:07 338 1 gusting 4 -5.6
2014-Oct-24 05:02 338 1 gusting 1 -6.1
2014-Oct-24 04:57 338 0 gusting 3 -6.1
2014-Oct-24 04:52 338 0 gusting 3 -6.1
2014-Oct-24 04:47 338 0 gusting 3 -6.1
2014-Oct-24 04:42 338 1 gusting 2 -6.1
2014-Oct-24 04:37 338 1 gusting 3 -6.1
2014-Oct-24 04:32 338 1 gusting 3 -6.1
2014-Oct-24 04:27 338 1 gusting 3 -6.1
2014-Oct-24 04:22 338 1 gusting 2 -6.7
2014-Oct-24 04:17 338 1 gusting 2 -6.7
2014-Oct-24 04:12 338 1 gusting 2 -6.7
2014-Oct-24 04:07 338 1 gusting 2 -6.7
2014-Oct-24 04:02 338 1 gusting 1 -7.2
2014-Oct-24 03:57 338 0 gusting 1 -7.2
2014-Oct-24 03:52 338 0 gusting 1 -7.8
2014-Oct-24 03:47 338 -7.8
2014-Oct-24 03:42 338 -7.8
2014-Oct-24 03:37 338 -7.8
2014-Oct-24 03:32 338 -8.3
2014-Oct-24 03:27 338 0 gusting 1 -8.3
2014-Oct-24 03:22 338 0 gusting 1 -8.3
2014-Oct-24 03:17 338 0 gusting 1 -8.3
2014-Oct-24 03:12 338 0 gusting 1 -8.9
2014-Oct-24 03:07 338 0 gusting 1 -8.9
2014-Oct-24 03:02 338 0 gusting 1 -9.4
2014-Oct-24 02:57 338 -9.4
2014-Oct-24 02:52 338 0 gusting 1 -9.4
2014-Oct-24 02:47 338 0 gusting 1 -10.0
2014-Oct-24 02:42 338 0 -10.0
2014-Oct-24 02:37 338 -10.0
2014-Oct-24 02:32 338 -10.0
2014-Oct-24 02:27 338 -10.6
2014-Oct-24 02:22 338 -10.6
2014-Oct-24 02:17 338 -10.6
2014-Oct-24 02:12 338 0 gusting 1 -10.6
2014-Oct-24 02:07 338 0 gusting 1 -10.6
2014-Oct-24 02:02 338 1 gusting 1 -10.6
2014-Oct-24 01:57 338 1 gusting 1 -11.1
2014-Oct-24 01:52 338 1 gusting 2 -11.1
2014-Oct-24 01:47 338 1 gusting 2 -11.1
2014-Oct-24 01:42 338 1 gusting 2 -11.1
2014-Oct-24 01:37 338 1 gusting 2 -11.1
2014-Oct-24 01:32 338 1 gusting 2 -11.7
2014-Oct-24 01:27 338 1 gusting 2 -11.7
2014-Oct-24 01:22 338 1 gusting 2 -11.7
2014-Oct-24 01:17 338 1 gusting 1 -11.7
2014-Oct-24 01:12 338 0 gusting 1 -12.2
2014-Oct-24 01:07 338 -12.2
2014-Oct-24 01:02 338 -12.2
2014-Oct-24 00:57 338 0 gusting 1 -12.2
2014-Oct-24 00:52 338 0 gusting 1 -12.2
2014-Oct-24 00:47 338 0 gusting 1 -12.2
2014-Oct-24 00:42 338 0 gusting 1 -12.2
2014-Oct-24 00:37 338 1 gusting 1 -12.2
2014-Oct-24 00:32 338 0 gusting 1 -12.2
2014-Oct-24 00:27 338 -12.2
2014-Oct-24 00:22 338 -12.2
2014-Oct-24 00:17 338 -12.2
2014-Oct-24 00:12 338 -12.2
2014-Oct-24 00:07 338 -12.2
2014-Oct-24 00:02 338 -12.2
2014-Oct-23 23:57 338 -12.2
2014-Oct-23 23:52 338 -12.2
2014-Oct-23 23:47 338 -12.2
2014-Oct-23 23:42 338 -12.2
2014-Oct-23 23:37 338 -12.2
2014-Oct-23 23:32 338 -12.2
2014-Oct-23 23:27 338 -12.2
2014-Oct-23 23:22 338 -12.2
2014-Oct-23 23:17 338 -12.2
2014-Oct-23 23:12 338 -12.2
2014-Oct-23 23:07 338 -12.2
2014-Oct-23 23:02 338 -12.2
2014-Oct-23 22:57 338 -12.2
2014-Oct-23 22:52 338 -12.2
2014-Oct-23 22:47 338 -12.2
2014-Oct-23 22:42 338 -12.2
2014-Oct-23 22:37 338 -12.2
2014-Oct-23 22:32 338 -12.2
2014-Oct-23 22:27 338 -12.2
2014-Oct-23 22:22 338 -12.2
2014-Oct-23 22:17 338 -12.2
2014-Oct-23 22:12 338 -12.2
2014-Oct-23 22:07 338 0 gusting 1 -12.2
2014-Oct-23 22:02 338 -12.2
2014-Oct-23 21:57 338 -11.7
2014-Oct-23 21:52 338 -11.7
2014-Oct-23 21:47 338 -11.7
2014-Oct-23 21:42 338 -11.7
2014-Oct-23 21:37 338 -11.7
2014-Oct-23 21:32 338 -11.7
2014-Oct-23 21:27 338 -11.7
2014-Oct-23 21:22 338 -11.7
2014-Oct-23 21:17 338 -11.7
2014-Oct-23 21:12 338 -11.7
2014-Oct-23 21:07 338 -11.7
2014-Oct-23 20:57 338 -11.7
2014-Oct-23 20:52 338 -11.7
2014-Oct-23 20:47 338 -11.7
2014-Oct-23 20:42 338 -11.7
2014-Oct-23 20:37 338 -11.7
2014-Oct-23 20:32 338 -11.7
2014-Oct-23 20:27 338 -11.7
2014-Oct-23 20:22 338 -11.7
2014-Oct-23 20:17 338 -11.7
2014-Oct-23 20:12 338 0 gusting 1 -11.1
2014-Oct-23 20:07 338 0 gusting 1 -11.1
2014-Oct-23 20:02 338 0 gusting 1 -11.1
2014-Oct-23 19:57 338 0 gusting 1 -11.1
2014-Oct-23 19:52 338 0 gusting 1 -11.1
2014-Oct-23 19:47 338 0 gusting 1 -11.1
2014-Oct-23 19:42 338 -11.1
2014-Oct-23 19:37 338 -11.1
2014-Oct-23 19:32 338 -11.1
2014-Oct-23 19:27 338 -11.1
2014-Oct-23 19:22 338 -11.1
2014-Oct-23 19:17 338 -11.1
2014-Oct-23 19:12 338 -11.1
2014-Oct-23 19:07 338 -11.1
2014-Oct-23 19:02 338 -11.1
2014-Oct-23 18:57 338 -10.6
2014-Oct-23 18:52 338 -10.6
2014-Oct-23 18:47 338 -10.6
2014-Oct-23 18:27 338 -10.6
2014-Oct-23 18:22 338 -10.6
2014-Oct-23 18:17 338 -10.6
2014-Oct-23 18:12 338 -10.6
2014-Oct-23 18:07 338 -10.0
2014-Oct-23 18:02 338 -10.0
2014-Oct-23 17:57 338 -10.0
2014-Oct-23 17:52 338 -10.0
2014-Oct-23 17:47 338 -10.0
2014-Oct-23 17:42 338 -10.0
2014-Oct-23 17:37 338 -9.4
2014-Oct-23 17:32 338 -9.4
2014-Oct-23 17:27 338 -9.4
2014-Oct-23 17:22 338 -9.4
2014-Oct-23 17:17 338 -9.4
2014-Oct-23 17:12 338 -9.4
2014-Oct-23 17:07 338 -9.4
2014-Oct-23 17:02 338 -9.4
2014-Oct-23 16:57 338 -9.4
2014-Oct-23 16:52 338 -8.9
2014-Oct-23 16:47 338 -8.9
2014-Oct-23 16:42 338 -8.9
2014-Oct-23 16:37 338 -8.9
2014-Oct-23 16:32 338 -8.9
2014-Oct-23 16:27 338 -8.9
2014-Oct-23 16:22 338 -8.3
2014-Oct-23 16:17 338 -8.3
2014-Oct-23 16:12 338 -8.3
2014-Oct-23 16:07 338 -8.3
2014-Oct-23 16:02 338 -8.3
2014-Oct-23 15:57 338 -8.3
2014-Oct-23 15:52 338 -7.8
2014-Oct-23 15:47 338 -7.8
2014-Oct-23 15:42 338 -7.8
2014-Oct-23 15:37 338 -7.8
2014-Oct-23 15:32 338 -7.2
2014-Oct-23 15:27 338 -7.2
2014-Oct-23 15:22 338 -7.2
2014-Oct-23 15:17 338 -6.7
2014-Oct-23 15:12 338 -6.7
2014-Oct-23 15:07 338 -6.7
2014-Oct-23 15:02 338 -6.7
2014-Oct-23 14:57 338 -6.7
2014-Oct-23 14:52 338 -6.1
2014-Oct-23 14:47 338 -6.1
2014-Oct-23 14:42 338 -6.1
2014-Oct-23 14:37 338 -6.1
2014-Oct-23 14:32 338 -5.6
2014-Oct-23 14:27 338 -5.6
2014-Oct-23 14:22 338 -5.6
2014-Oct-23 14:17 338 -5.6
2014-Oct-23 14:12 338 -5.0
2014-Oct-23 14:07 338 -5.0
2014-Oct-23 14:02 338 -5.0
2014-Oct-23 13:57 338 -5.0
2014-Oct-23 13:52 338 -4.4
2014-Oct-23 13:47 338 -4.4
2014-Oct-23 13:42 338 -4.4
2014-Oct-23 13:37 338 -4.4
2014-Oct-23 13:32 338 -4.4
2014-Oct-23 13:27 338 -4.4
2014-Oct-23 13:22 338 -4.4
2014-Oct-23 13:17 338 0 gusting 2 -4.4
2014-Oct-23 13:12 338 0 gusting 2 -4.4
2014-Oct-23 13:07 338 0 gusting 2 -4.4
2014-Oct-23 13:02 338 -4.4
2014-Oct-23 12:57 338 0 gusting 0 -4.4
2014-Oct-23 12:52 338 -4.4
2014-Oct-23 12:47 338 -4.4
2014-Oct-23 12:42 338 -4.4
2014-Oct-23 12:37 338 -4.4
2014-Oct-23 12:32 338 -4.4
2014-Oct-23 12:27 338 -4.4
2014-Oct-23 12:22 338 0 gusting 2 -4.4
2014-Oct-23 12:17 338 0 gusting 1 -4.4
2014-Oct-23 12:12 338 0 gusting 1 -4.4
2014-Oct-23 12:07 338 -4.4
2014-Oct-23 12:02 338 -4.4
2014-Oct-23 11:57 338 1 gusting 3 -4.4
2014-Oct-23 11:52 338 1 gusting 3 -4.4
2014-Oct-23 11:47 338 1 gusting 3 -4.4
2014-Oct-23 11:42 338 1 gusting 4 -4.4
2014-Oct-23 11:37 338 1 gusting 4 -4.4
2014-Oct-23 11:32 338 2 gusting 4 -5.0
2014-Oct-23 11:27 338 2 gusting 3 -5.0
2014-Oct-23 11:22 338 3 gusting 4 -5.0
2014-Oct-23 11:17 338 3 gusting 4 -5.0
2014-Oct-23 11:12 338 2 gusting 3 -5.0
2014-Oct-23 11:07 338 2 gusting 3 -5.0
2014-Oct-23 11:02 338 2 gusting 4 -5.6
2014-Oct-23 10:57 338 3 gusting 4 -5.6
2014-Oct-23 10:52 338 2 gusting 3 -5.6
2014-Oct-23 10:47 338 2 gusting 3 -5.6
2014-Oct-23 10:42 338 1 gusting 3 -5.6
2014-Oct-23 10:37 338 1 gusting 3 -5.6
2014-Oct-23 10:32 338 1 gusting 3 -5.6
2014-Oct-23 10:27 338 1 gusting 2 -5.6
2014-Oct-23 10:22 338 1 gusting 2 -5.6
2014-Oct-23 10:17 338 1 gusting 3 -6.1
2014-Oct-23 10:12 338 1 gusting 3 -6.1
2014-Oct-23 10:07 338 1 gusting 3 -6.1
2014-Oct-23 10:02 338 1 gusting 3 -6.1
2014-Oct-23 09:57 338 1 gusting 1 -6.1
2014-Oct-23 09:52 338 0 gusting 1 -6.1
2014-Oct-23 09:47 338 0 gusting 1 -6.7
2014-Oct-23 09:42 338 1 gusting 3 -6.7
2014-Oct-23 09:37 338 1 gusting 3 -6.7
2014-Oct-23 09:32 338 2 gusting 3 -6.7
2014-Oct-23 09:27 338 2 gusting 3 -6.7
2014-Oct-23 09:22 338 2 gusting 3 -7.2
2014-Oct-23 09:17 338 2 gusting 3 -7.2
2014-Oct-23 09:12 338 1 gusting 2 -7.8
2014-Oct-23 09:07 338 1 gusting 2 -7.8
2014-Oct-23 09:02 338 1 gusting 2 -7.8
2014-Oct-23 08:57 338 1 gusting 2 -7.8
2014-Oct-23 08:52 338 1 gusting 3 -7.8
2014-Oct-23 08:47 338 1 gusting 3 -7.8
2014-Oct-23 08:42 338 1 gusting 3 -8.3
2014-Oct-23 08:37 338 1 gusting 3 -8.3
2014-Oct-23 08:32 338 2 gusting 3 -8.3
2014-Oct-23 08:27 338 2 gusting 3 -8.3
2014-Oct-23 08:22 338 2 gusting 4 -8.3
2014-Oct-23 08:17 338 2 gusting 4 -8.3
2014-Oct-23 08:12 338 3 gusting 4 -8.9
2014-Oct-23 08:07 338 2 gusting 3 -8.9
2014-Oct-23 08:02 338 2 gusting 3 -8.9
2014-Oct-23 07:57 338 1 gusting 2 -9.4
2014-Oct-23 07:52 338 1 gusting 3 -9.4
2014-Oct-23 07:47 338 2 gusting 3 -9.4
2014-Oct-23 07:42 338 2 gusting 2 -9.4
2014-Oct-23 07:37 338 1 gusting 2 -10.0
2014-Oct-23 07:32 338 1 gusting 2 -10.0
2014-Oct-23 07:27 338 1 gusting 2 -10.6
2014-Oct-23 07:22 338 0 gusting 3 -10.6
2014-Oct-23 07:17 338 1 gusting 3 -11.1
2014-Oct-23 07:12 338 2 gusting 3 -11.1
2014-Oct-23 07:07 338 2 gusting 3 -11.7
2014-Oct-23 07:02 338 2 gusting 3 -11.7